Regional Weather Roundup
Issued by NWS Sioux Falls, SD

Home | Current Version | Previous Version | Graphics & Text | Print | Product List | Glossary On
Versions: 1 2 3 4 5 6 7 8 9 10 11 12 13 14 15 16 17 18 19 20 21 22 23 24 25 26 27 28 29 30 31 32 33 34 35 36 37 38 39 40 41 42 43 44 45 46 47 48 49 50
000
ASUS43 KFSD 221610
RWRFSD

WEATHER ROUNDUP FOR SE SOUTH DAKOTA/SW MINNESOTA/NW IOWA
NATIONAL WEATHER SERVICE SIOUX FALLS SD
1100 AM CDT WED OCT 22 2014

NOTE: "FAIR" INDICATES FEW OR NO CLOUDS BELOW 12,000 FEET WITH NO
SIGNIFICANT WEATHER AND OR OBSTRUCTIONS TO VISIBILITY.


SDZ038>040-050-052>070-221700-
SOUTHEAST SOUTH DAKOTA

CITY           SKY/WX    TMP DP  RH WIND       PRES   REMARKS
CHAMBERLAIN    LGT RAIN  56  49  76 W14       29.95R
HURON          CLOUDY    62  49  62 S13G23    29.89R
MADISON        FAIR      57  46  67 S18G26    29.96S
MITCHELL       PTSUNNY   66  52  60 S18G25    29.92R
SIOUX FALLS    PTSUNNY   61  48  62 S20G31    29.98S
WINNER         CLOUDY    55  49  80 W13       29.97R
YANKTON        SUNNY     63  48  59 S17       29.97S
$$

MNZ071-072-080-081-089-090-097-098-221700-
SOUTHWEST MINNESOTA

CITY           SKY/WX    TMP DP  RH WIND       PRES   REMARKS
FAIRMONT       SUNNY     54  37  54 S25G32    30.11F
JACKSON        MOSUNNY   55  41  58 S20G28    30.09F
LUVERNE        MOSUNNY   61  45  55 S20G28    30.02S
MARSHALL       MOSUNNY   61  43  51 S22G39    29.97F
MONTEVIDEO     MOSUNNY   57  43  58 S16G24    29.99R
PIPESTONE      MOSUNNY   59  45  58 S21G31    29.99S
REDWOOD FALLS  MOSUNNY   57  41  55 S23G35    30.04F
TRACY          SUNNY     59  44  58 S22G30    30.01S
WINDOM         SUNNY     57  43  58 S15G21    30.06S
WORTHINGTON    MOSUNNY   55  43  62 S21G29    30.06S
$$

IAZ001>003-012>014-020>022-031-032-NEZ013-014-SDZ071-221700-
NORTHWEST IOWA

CITY           SKY/WX    TMP DP  RH WIND       PRES   REMARKS
CHEROKEE       SUNNY     60  45  57 S13G20    30.08F
DENISON        SUNNY     61  45  55 S13G24    30.09F
ESTHERVILLE    SUNNY     54  42  64 S23       30.11F
LE MARS        PTSUNNY   64  48  55 S20G25    30.04F
ORANGE CITY    SUNNY     63  46  55 S21G26    30.04S
SHELDON        SUNNY     59  45  58 S22G30    30.04S
SIOUX CITY     SUNNY     63  47  55 S17G24    30.06S
SPENCER        SUNNY     57  43  59 SE20G29   30.10F
STORM LAKE     SUNNY     59  45  58 S23G30    30.10F
$$

ABBREVIATIONS USED IN REMARKS
   TC - TEMPERATURE IN CELSIUS
  WCI - WIND CHILL INDEX
   HX - HEAT INDEX
  VSB - VISIBILITY




USA.gov is the U.S. government's official web portal to all federal, state and local government web resources and services.